This is the latest recevied weather packets stored in our database for station/object SQ5AAG-2. If no packets are shown the sender has not sent any weather packets the latest 10 day(s).
| Time | Temp. | Humidity | Pressure | Rain* | Wind** | Luminosity | Snow |
|---|---|---|---|---|---|---|---|
| 1778013951 | 18.89° C | 59% | 991.1 hPa | 0 mm | - | - | - |
| 1778013651 | 18.89° C | 54% | 991 hPa | 0 mm | - | - | - |
| 1778013351 | 18.89° C | 52% | 991 hPa | 0 mm | - | - | - |
| 1778013050 | 18.89° C | 46% | 991.1 hPa | 0 mm | - | - | - |
| 1778012750 | 18.89° C | 46% | 990.9 hPa | 0 mm | - | - | - |
| 1778012450 | 19.44° C | 43% | 990.9 hPa | 0 mm | - | - | - |
| 1778012150 | 19.44° C | 41% | 990.9 hPa | 0 mm | - | - | - |
| 1778011850 | 19.44° C | 38% | 990.9 hPa | 0 mm | - | - | - |
| 1778011549 | 19.44° C | 37% | 991 hPa | 0 mm | - | - | - |
| 1778011249 | 18.89° C | 37% | 990.8 hPa | 0 mm | - | - | - |
| 1778010948 | 18.89° C | 38% | 990.6 hPa | 0 mm | - | - | - |
| 1778010648 | 19.44° C | 36% | 990.5 hPa | 0 mm | - | - | - |
| 1778010348 | 19.44° C | 35% | 990.4 hPa | 0 mm | - | - | - |
| 1778010047 | 19.44° C | 35% | 990.4 hPa | 0 mm | - | - | - |
| 1778009747 | 20° C | 35% | 990.4 hPa | 0 mm | - | - | - |
| 1778009449 | 20° C | 35% | 990.5 hPa | 0 mm | - | - | - |
| 1778009147 | 20° C | 34% | 990.4 hPa | 0 mm | - | - | - |
| 1778008846 | 20.56° C | 34% | 990.4 hPa | 0 mm | - | - | - |
| 1778008546 | 20.56° C | 34% | 990.4 hPa | 0 mm | - | - | - |
| 1778008246 | 20.56° C | 34% | 990.5 hPa | 0 mm | - | - | - |
| 1778007945 | 20.56° C | 34% | 990.4 hPa | 0 mm | - | - | - |
| 1778007645 | 20.56° C | 33% | 990.5 hPa | 0 mm | - | - | - |
| 1778007345 | 21.11° C | 33% | 990.4 hPa | 0 mm | - | - | - |
| 1778007044 | 21.11° C | 33% | 990.3 hPa | 0 mm | - | - | - |
| 1778006744 | 21.11° C | 33% | 990.6 hPa | 0 mm | - | - | - |
* Rain latest hour (hover to see other rain measurements)
** Current wind speed in m/s (hover to see current wind gust speed)